#timestamp,LO_Frequency,Hit,StdDev 
1612026015.2,286046991.3,N
1612026035.0,286046992.1,N
1612026035.9,286046992.1,Y
1612026055.8,286047003.1,P
1612026075.6,286047003.5,N
1612026095.4,286047001.6,N
1612026115.3,286047003.7,N
1612026135.1,286047003.7,N
1612026155.9,286047002.5,N
1612026175.7,286047010.5,N
1612026195.5,286047009.8,N
1612026215.4,286047007.7,N
1612026235.2,286047008.1,N
1612026255.0,286047008.4,N
1612026256.0,286047008.4,N
1612026275.8,286047006.4,N
1612026295.6,286047006.3,N
1612026315.5,286047005.0,N
1612026335.3,286047007.3,N
1612026355.1,286047008.3,N
1612026375.9,286047014.2,Y
1612026395.7,286047007.0,P
1612026415.6,286047004.7,P
1612026435.4,286047008.0,P
1612026455.2,286047004.9,Y
1612026475.1,286046997.2,P
1612026476.0,286046997.2,N
1612026495.8,286046995.6,N
1612026515.7,286046995.6,N
1612026535.5,286047005.7,N
1612026555.3,286047008.0,N
1612026575.2,286047008.1,N
1612026595.0,286047010.7,N
1612026595.9,286047010.7,N
1612026615.8,286047011.9,N
1612026635.6,286047001.5,N
1612026655.4,286047003.8,N
1612026675.3,286047005.5,N
1612026695.1,286047003.8,N
1612026715.8,286047011.9,N
1612026735.7,286047007.3,N
1612026755.5,286047003.2,N
1612026775.4,286047007.5,N
1612026795.2,286047011.0,N
1612026815.0,286047009.3,N
1612026815.9,286047009.3,N
1612026835.8,286047013.8,N
1612026855.6,286047009.2,N
1612026875.5,286047006.0,N
1612026895.3,286047002.9,N
1612026915.1,286047001.5,N
1612026935.9,286047001.5,N
1612026955.7,286047001.9,N
1612026975.5,286047003.9,N
1612026995.4,286047010.7,N
1612027015.2,286047009.9,N
1612027035.1,286047009.9,N
1612027036.0,286047011.9,N
1612027055.8,286047011.3,N
1612027075.6,286047011.0,N
1612027095.5,286047012.2,Y
1612027115.3,286047003.6,P
1612027135.2,286047002.9,N
1612027155.9,286047004.7,N
1612027175.7,286047006.3,Y
1612027195.6,286046998.5,P
1612027215.4,286046999.5,N
1612027235.3,286046998.0,N
1612027255.1,286046996.4,N
1612027256.0,286046996.4,N
1612027275.8,286046997.7,N
1612027295.7,286046997.4,N
1612027315.5,286046995.0,N
1612027335.3,286046995.6,N
1612027355.2,286046993.5,N
1612027375.0,286046994.2,N
1612027375.9,286046994.2,N
1612027395.8,286046997.2,N
1612027415.6,286047004.9,N
1612027435.4,286047005.9,N
1612027455.3,286047000.0,N
1612027475.1,286047000.1,N
1612027495.9,286046999.3,N
1612027515.7,286046999.1,N
1612027535.5,286046999.4,N
1612027555.4,286046997.5,N
1612027575.2,286046997.6,N
1612027595.0,286046998.0,N
1612027595.9,286046998.0,N
1612027615.8,286046997.8,N
1612027635.6,286046999.2,N
1612027655.5,286046997.0,N
1612027675.3,286046998.4,N
1612027695.1,286046999.7,N
1612027715.9,286046998.3,N
1612027735.7,286047000.9,N
1612027755.5,286046999.3,N
1612027775.4,286046997.1,N
1612027795.2,286046996.7,N
1612027815.1,286046996.7,N
1612027816.0,286046996.7,N
1612027835.8,286046999.7,N
1612027855.6,286047005.1,N
1612027875.5,286047000.8,N
1612027895.3,286046999.2,N
1612027915.2,286046996.6,N
1612027935.9,286047001.1,N
1612027955.7,286046999.0,N
1612027975.6,286046997.0,N
1612027995.4,286046996.6,N
1612028015.2,286046997.9,N
1612028035.1,286046999.2,N
1612028036.0,286046999.2,N
1612028055.8,286046997.7,N
1612028075.7,286047000.0,N
1612028095.5,286046999.0,N
1612028115.3,286046996.6,N
1612028135.2,286046996.8,N
1612028155.0,286046997.0,N
1612028155.9,286046997.0,N
1612028175.8,286046997.6,N
1612028195.6,286046995.1,N
1612028215.4,286046995.6,N
1612028235.3,286046993.3,Y
1612028255.1,286046995.9,P
1612028275.8,286046993.3,P
1612028295.7,286046996.3,N
1612028315.5,286046997.6,N
1612028335.4,286047004.4,N
1612028355.2,286047002.3,N
1612028375.0,286047000.3,N
1612028375.9,286047000.3,N
1612028395.8,286047001.2,N
1612028415.6,286046997.5,N
1612028435.5,286046997.9,N
1612028455.3,286046997.0,N
1612028475.1,286046997.3,N
1612028495.9,286046997.5,N
1612028515.7,286046997.1,N
1612028535.5,286046997.9,N
1612028555.4,286046997.4,N
1612028575.2,286046999.5,N
1612028595.1,286046997.3,N
1612028596.0,286046997.3,N
1612028615.8,286046995.1,N
1612028635.6,286046993.9,N
1612028655.5,286046993.9,N
1612028675.3,286046993.5,N
1612028695.1,286046996.2,N
1612028715.9,286046997.7,N
1612028735.7,286046997.8,N
1612028755.6,286047000.8,N
1612028775.4,286047001.2,N
1612028795.2,286047000.4,N
1612028815.1,286047000.7,N
1612028816.0,286047000.7,N
1612028835.8,286046999.3,N
1612028855.7,286046996.7,N
1612028875.5,286047004.9,N
1612028895.3,286047000.4,N
1612028915.2,286047000.2,N
1612028935.0,286047000.1,N
1612028935.9,286047000.1,N
1612028955.8,286046998.4,N
1612028975.6,286047001.0,N
1612028995.4,286047000.3,N
1612029015.3,286047000.3,N
1612029035.1,286047001.4,N
1612029055.8,286047000.6,N
1612029075.7,286047002.1,N
1612029095.5,286047002.9,N
1612029115.4,286047004.3,N
1612029135.2,286047000.1,N
1612029155.0,286047000.5,N
1612029155.9,286047000.5,N
1612029175.8,286047000.7,N
1612029195.6,286047000.9,N
1612029215.5,286046999.9,N
1612029235.3,286047001.1,N
1612029255.1,286047005.8,Y
1612029275.9,286047008.8,P
1612029295.7,286047005.5,N
1612029315.5,286047004.0,N
1612029335.4,286047001.5,N
1612029355.2,286047002.5,N
1612029375.1,286046999.8,N
1612029376.0,286046999.8,N
1612029395.8,286046999.8,N
1612029415.6,286047002.0,N
1612029435.5,286047001.7,N
1612029455.3,286047000.2,N
1612029475.2,286047002.2,N
1612029495.9,286047002.5,N
1612029515.7,286047001.4,N
1612029535.6,286047000.2,N
1612029555.4,286047002.2,N
1612029575.2,286047004.3,N
1612029595.1,286047003.8,N
1612029596.0,286047003.8,N
